Regional Weather Roundup
Issued by NWS

Home | Current Version | Previous Version | Graphics & Text | Print | Product List | Glossary Off
Versions: 1 2 3 4 5 6 7 8 9 10 11 12 13 14 15 16 17 18 19 20 21 22 23 24 25 26 27 28 29 30 31 32 33 34 35 36 37 38 39 40 41 42 43 44 45 46 47 48 49 50

000
ASUS43 KMKX 121821
RWRWI

WISCONSIN REGIONAL WEATHER ROUNDUP
NATIONAL WEATHER SERVICE MILWAUKEE/SULLIVAN WI
100 PM CDT SAT JUL 12 2014

NOTE: "FAIR" INDICATES FEW OR NO CLOUDS BELOW 12,000 FEET WITH NO
SIGNIFICANT WEATHER AND/OR OBSTRUCTIONS TO VISIBILITY.

WIZ001-002-006>008-014>016-023>028-121900-
NORTHWEST WISCONSIN

CITY           SKY/WX    TMP DP  RH WIND       PRES   REMARKS
SUPERIOR ARPT  CLOUDY    73  58  59 CALM      29.96F
6HR MIN TEMP:  63; 6HR MAX TEMP:  73;

ASHLAND        CLOUDY    74  61  63 N5        29.97F
6HR MIN TEMP:  67; 6HR MAX TEMP:  75;

HAYWARD        CLOUDY    77  63  61 CALM      29.98F
6HR MIN TEMP:  63; 6HR MAX TEMP:  78;

SIREN          CLOUDY    76  62  62 N3        29.98S
6HR MIN TEMP:  66; 6HR MAX TEMP:  76;

RICE LAKE      CLOUDY    75  69  82 CALM      29.98F
6HR MIN TEMP:  66; 6HR MAX TEMP:  73;

LADYSMITH      CLOUDY    74  69  85 CALM      30.00S
6HR MIN TEMP:  67; 6HR MAX TEMP:  74;

EAU CLAIRE     CLOUDY    74  71  91 CALM      29.96F
6HR MIN TEMP:  69; 6HR MAX TEMP:  74; 6HR PCP: TRACE;

MENOMONIE      CLOUDY    75  71  85 CALM      29.98S FOG
6HR MIN TEMP:  69; 6HR MAX TEMP:  75;

NEW RICHMOND   DRIZZLE   75  72  91 SW3       29.98S
6HR MIN TEMP:  68; 6HR MAX TEMP:  75;

OSCEOLA        LGT RAIN  74  73  96 CALM      30.00S
6HR MIN TEMP:  68; 6HR MAX TEMP:  75;

$$

WIZ003>005-009-010-017-018-121900-
NORTH CENTRAL WISCONSIN

CITY           SKY/WX    TMP DP  RH WIND       PRES   REMARKS
WOODRUFF       CLOUDY    80  66  62 SW5       29.99S HX  82
6HR MIN TEMP:  66; 6HR MAX TEMP:  82;

RHINELANDER    CLOUDY    75  66  73 SW6       30.00S
6HR MIN TEMP:  66; 6HR MAX TEMP:  75;

EAGLE RIVER    CLOUDY    76  61  60 SW5       29.98F
6HR MIN TEMP:  65; 6HR MAX TEMP:  76;

LAND O LAKES   CLOUDY    78  61  55 W5        29.99S
6HR MIN TEMP:  67; 6HR MAX TEMP:  78;

PHILLIPS       CLOUDY    74  68  79 CALM      29.98F
6HR MIN TEMP:  67; 6HR MAX TEMP:  74;

TOMAHAWK       CLOUDY    76  67  73 CALM      29.99F
6HR MIN TEMP:  66; 6HR MAX TEMP:  76;

MEDFORD        CLOUDY    74  69  81 S5        29.99F
6HR MIN TEMP:  66; 6HR MAX TEMP:  75;

MERRILL        CLOUDY    77  69  75 CALM      29.98S
6HR MIN TEMP:  66; 6HR MAX TEMP:  77;

$$

WIZ029-030-035-036-043>047-121900-
CENTRAL WISCONSIN

CITY           SKY/WX    TMP DP  RH WIND       PRES   REMARKS
WAUSAU         CLOUDY    76  67  73 CALM      29.97S
6HR MIN TEMP:  68; 6HR MAX TEMP:  77;

MOSINEE        MOSUNNY   73  72  94 S5        30.00S
MARSHFIELD     LGT RAIN  74  70  87 SE3       29.98F
6HR MIN TEMP:  68; 6HR MAX TEMP:  74; 6HR PCP: TRACE;

STEVENS POINT  CLOUDY    73  66  79 CALM      29.99F
6HR MIN TEMP:  66; 6HR MAX TEMP:  73;

WAUPACA        CLOUDY    78  69  73 CALM      29.98S HX  80
6HR MIN TEMP:  68; 6HR MAX TEMP:  78;

WAUTOMA        CLOUDY    78  70  76 S3        30.00R HX  80
6HR MIN TEMP:  66; 6HR MAX TEMP:  78; 6HR PCP: TRACE;

WISC RAPIDS    CLOUDY    76  68  76 SW3       29.99F
6HR MIN TEMP:  69; 6HR MAX TEMP:  77;

CAMP DOUGLAS   NOT AVBL
$$

WIZ011>013-019>022-031-037>040-048>050-121900-
NORTHEAST WISCONSIN

CITY           SKY/WX    TMP DP  RH WIND       PRES   REMARKS
ANTIGO         CLOUDY    75  68  79 S3        30.00S
6HR MIN TEMP:  66; 6HR MAX TEMP:  75;

STURGEON BAY   CLOUDY    72  64  78 S6        30.00R
6HR MIN TEMP:  64; 6HR MAX TEMP:  75;

GREEN BAY      CLOUDY    77  68  73 CALM      29.98S
6HR MIN TEMP:  68; 6HR MAX TEMP:  78;

MANITOWOC      CLOUDY    68  62  81 SE5       29.99F
6HR MIN TEMP:  62; 6HR MAX TEMP:  71;

APPLETON       CLOUDY    75  66  73 VRB3      29.99S
CLINTONVILLE   CLOUDY    75  66  73 CALM      29.98S
OSHKOSH        CLOUDY    75  68  78 E5        29.97F
6HR MIN TEMP:  69; 6HR MAX TEMP:  78;

$$

WIZ032>034-041-042-053>061-121900-
SOUTHWEST WISCONSIN

CITY           SKY/WX    TMP DP  RH WIND       PRES   REMARKS
LA CROSSE      CLOUDY    75  70  84 SW9       29.97R
6HR MIN TEMP:  71; 6HR MAX TEMP:  77; 6HR PCP: TRACE;

SPARTA         CLOUDY    74  68  79 S3        29.98F
6HR MIN TEMP:  67; 6HR MAX TEMP:  75;

VIROQUA        FAIR      74  71  91 S5        30.01R
6HR MIN TEMP:  68; 6HR MAX TEMP:  74;

BOSCOBEL       CLOUDY    79  69  71 CALM      30.00R HX  81
6HR MIN TEMP:  69; 6HR MAX TEMP:  79; 6HR PCP: TRACE;

PRAIRIE DU CHI CLOUDY   N/A N/A N/A CALM      29.99S
PLATTEVILLE    PTSUNNY   77  72  82 S8        30.02S
6HR MIN TEMP:  67; 6HR MAX TEMP:  78; 6HR PCP:  0.02;

$$

WIZ056-057-062-063-064-067-068-121900-
SOUTH CENTRAL WISCONSIN

CITY           SKY/WX    TMP DP  RH WIND       PRES   REMARKS
BARABOO/DELLS  CLOUDY    75  67  77 CALM      30.00F
6HR MIN TEMP:  70; 6HR MAX TEMP:  75;

LONE ROCK      CLOUDY    79  70  74 S6        30.00S HX  82
6HR MIN TEMP:  72; 6HR MAX TEMP:  79; 6HR PCP: TRACE;

WATERTOWN      CLOUDY    73  69  86 S5        30.01S
6HR MIN TEMP:  68; 6HR MAX TEMP:  76;

MADISON        LGT RAIN  78  68  71 S6        30.00F HX  80
6HR MIN TEMP:  72; 6HR MAX TEMP:  78; 6HR PCP: TRACE;

MIDDLETON      MOCLDY    77  68  72 CALM      30.01F
6HR MIN TEMP:  71; 6HR MAX TEMP:  78;

MONROE         CLOUDY    73  70  88 S13       30.02F
JANESVILLE     PTSUNNY   77  68  73 SW9       30.02R
$$

WIZ051-052-058>065-066-070>072-121900-
SOUTHEAST WISCONSIN

CITY           SKY/WX    TMP DP  RH WIND       PRES   REMARKS
MILWAUKEE      CLOUDY    75  69  81 S10       29.98F
6HR MIN TEMP:  72; 6HR MAX TEMP:  76; 6HR PCP: TRACE;

WAUKESHA       PTSUNNY   73  66  78 S9        30.02S FOG
MILWAUKEE/TIMM PTSUNNY   75  64  69 SW5       30.01S
RACINE         CLOUDY    77  71  82 SW8       30.00F
6HR MIN TEMP:  69; 6HR MAX TEMP:  77; 6HR PCP: TRACE;

BURLINGTON     CLOUDY    73  68  87 S12       30.00F
6HR MIN TEMP:  67; 6HR MAX TEMP:  74;

KENOSHA        CLOUDY    77  71  82 SW13      29.99F
6HR MIN TEMP:  72; 6HR MAX TEMP:  76; 6HR PCP:  0.06;

FOND DU LAC    CLOUDY    77  67  71 S5        30.00R
6HR MIN TEMP:  69; 6HR MAX TEMP:  77;

SHEBOYGAN      CLOUDY    74  65  73 E5        29.98F
6HR MIN TEMP:  64; 6HR MAX TEMP:  74; 6HR PCP:  0.01;

WEST BEND      CLOUDY    73  64  73 SW3       30.00R
JUNEAU         DRIZZLE   73  54  49 SW6       30.02R
6HR MIN TEMP:  68; 6HR MAX TEMP:  75;

$$

LSZ147-162-121900-
LAKE SUPERIOR

STATION/POSITION TIME  TEMP    WIND        PRES    WAVE
                       AIR SEA DIR/SP/G            HT/PER
                 (UTC) (F)     (DEG/KT/KT) (MB)    (FT/S)
W MID LAKE BUOY  1750   47 39  250/  6/  6 1014.8F   0
PORT WING        1700   63     300/  4/  5 1015.2F
SAXON HARBOR     1700             CALM     1015.2F
$$

LMZ867-665-643>646-121900-
LAKE MICHIGAN

STATION/POSITION TIME  TEMP    WIND        PRES    WAVE
                       AIR SEA DIR/SP/G            HT/PER
                 (UTC) (F)     (DEG/KT/KT) (MB)    (FT/S)
N MID LAKE BUOY  1750   58 56  210/ 10/ 12 1015.0R   2/ 4
NORTHPORT PIER   1700   70     150/  4/  7 1014.9F
KEWAUNEE LAKESHO 1700   55     170/ 11/ 12 1016.3F
SHEBOYGAN LAKESH 1800   64     140/  7/  8 1015.2F
PORT WASHINGTON  1740   66      CALM  / 12 1015.2F
MILWAUKEE LAKESH 1800   60     150/  8/ 10   N/A
S MID LAKE BUOY  1750   65 63  140/ 14/ 16 1016.0F   1/ 3
KENOSHA   LAKESH 1800   75     190/  6/ 12   N/A
$$

TC  - TEMPERATURE IN CELSIUS
VSB - VISIBILITY IN STATUTE MILES
WCI - WIND CHILL INDEX
HX  - HEAT INDEX




USA.gov is the U.S. government's official web portal to all federal, state and local government web resources and services.